GEBA-online

Gesellschaft der Bassisten in Deutschland

www.GEBA-online.de

Gesellschaft der Bassisten in Deutschland



• • • Forum

Auch in diesem Forum gibt es Regeln: Forum-Regeln

SucheTagcloud
Freitextsuche
  
Kategoriensuche

Seite: 1 - 2 - 3 - 4 - 5 - 6 - 7 - 8 - 9 - 10 - 11 - 12 - 13 - 14 - 15 - 16 - 17 - 18 - 19 - 20 - 21 - 22 - 23 - 24 - 25 - 26 - 27 - 28 - 29 - 30 - 31 - 32 - 33 - 34 - 35 - 36 - 37 - 38 - 39 - 40 - 41 - 42 - 43 - 44 | Einen Beitrag ins Forum stellen

Beitrag Autor Letzter Beitrag Datum ReaktionenAufrufe
Badinerie BWV 1067 Fingersatz DrJohn13.07.2020, 13:51:24 03.07.2020, 21:58:16 18701
Sammelsurium dufter Bassvideos (1 2 3 4) HendrikNehls12.07.2020, 23:02:31 28.01.2009, 01:54:06 258295981
Was ist das für eine Bogenhaltung? Ste-Fan12.07.2020, 19:28:00 09.07.2020, 14:40:14 8411
Schmerzen im Daumen bei französischer Bogenhaltung HobbyBass12.07.2020, 13:32:38 19.06.2020, 20:28:35 15946
Halsdesinfektion Ste-Fan07.07.2020, 19:58:41 06.05.2020, 14:47:43 191969
Bass-Vergleich DrJohn07.07.2020, 19:22:18 28.05.2020, 22:47:37 241737
Suzuki-Kontrabass-Klasse Ste-Fan07.07.2020, 19:16:33 22.06.2020, 21:06:12 1367
Amp-Suche Oli07.07.2020, 19:15:09 09.11.2008, 10:29:13 1430298
Das Fingersatz-Würfelspiel KlausHörberg07.07.2020, 17:42:30 06.07.2020, 18:44:29 6256
What Are You Practising Ste-Fan07.07.2020, 16:44:19 23.06.2020, 20:33:22 3463
Gigs im Freien jlohse07.07.2020, 16:41:55 01.07.2020, 19:45:54 9489
professionelles live Streaming Konzert morgen Abend, 02.07.2020 um 20:20Uhr conbass03.07.2020, 15:14:22 01.07.2020, 19:33:21 7414
Genßler Saiten (1 2) geibrusch01.07.2020, 19:09:35 08.08.2010, 12:49:30 11296215
Tempera Strings (Gerold Genssler) martinthi30.06.2020, 23:35:28 11.04.2020, 22:55:35 111800
Mysteriöses Klappern FrankS.30.06.2020, 18:40:35 30.03.2013, 17:57:11 2732144
Preis für gebrauchten Thomann 1/8 Bass parisa29.06.2020, 01:12:24 10.04.2020, 22:15:27 141430
Top Tips for Gypsy Jazz Bass Lines Ste-Fan26.06.2020, 14:52:12 26.06.2020, 14:52:12 0334
geeigneter Amp für Akustikbass charleszell24.06.2020, 18:21:53 03.06.2008, 00:29:02 3532958
Enrico Monzitta Kontrabass aus 1902 Wert? Kontrabassneuling24.06.2020, 10:08:57 07.05.2019, 19:58:30 22950
Reußzehn Bass Friend Hen24.06.2020, 09:49:53 23.08.2012, 17:05:59 419295
Der Simandl-Eklat Ste-Fan22.06.2020, 20:57:14 23.04.2020, 19:21:14 71719
Ein Fall für Doktor Stradivari und Kommissar Reuter? Ste-Fan19.06.2020, 20:06:48 17.06.2020, 18:36:30 6528
Niedriger Steg: Halswinkel ändern vs. Keil unter Griffbrett hervejeanne19.06.2020, 09:05:26 18.06.2020, 16:23:43 2435
Bach / Beethoven the Archive Demo Recording Coronameister16.06.2020, 09:47:35 15.06.2020, 11:20:21 1503
ZOOM-Show von Adam Ben Ezra Ste-Fan15.06.2020, 18:42:37 15.06.2020, 18:42:37 0347
HanseBass 2020/2021 Ste-Fan15.06.2020, 10:29:53 15.06.2020, 10:29:53 0333
SightReading mit Ulf Prelle Ste-Fan15.06.2020, 10:23:57 15.06.2020, 10:23:57 0366
Composit (GFK) Bass? Fragmentalis09.06.2020, 16:25:56 06.06.2015, 09:15:20 2526128
Bässe mit abnehmbaren Hals bassdivad07.06.2020, 05:50:57 01.06.2020, 18:11:37 2719
Schnarren beim Wechselbass Ste-Fan05.06.2020, 18:21:59 26.05.2020, 21:04:10 131181
Kräftiger Bass gesucht albo03.06.2020, 22:37:07 02.06.2020, 14:50:08 2654
WARNUNG!! BETRÜGER!! Rapp27.05.2020, 15:48:48 23.05.2020, 10:56:17 11192
Spiccato wulfcam25.05.2020, 20:02:06 15.08.2019, 08:18:50 295062
Scooping Ste-Fan25.05.2020, 11:48:54 25.05.2020, 11:48:54 0571
Slap-Saiten für Klassiker Ste-Fan24.05.2020, 00:27:25 07.05.2020, 00:27:36 6921
Was ist das für ein Bass? Ste-Fan24.05.2020, 00:11:34 20.05.2020, 18:03:24 4946
Warnung! Betrüger! bassfranky23.05.2020, 10:50:41 26.09.2017, 12:35:49 115028
Audio Sprockets Tone Dexter ChristophKammer19.05.2020, 16:57:58 13.01.2018, 23:42:09 9419500
Unterricht in Neuss Jörn17.05.2020, 11:11:14 02.10.2015, 18:22:26 421125
Jammen mit der WDR Bigband jlohse16.05.2020, 21:24:57 13.05.2020, 19:49:38 7906
Coronabass-Sammlung (YouTube-Playlist) kontrafuss16.05.2020, 17:30:01 14.05.2020, 22:02:22 2694
Verstärker WatermelonMan16.05.2020, 14:12:49 16.05.2020, 14:12:49 0556
Feinstimmer Bassta716.05.2020, 13:44:11 15.05.2020, 16:26:36 7750
Kontrabassistinnen und Kontrabassisten Ste-Fan07.05.2020, 20:33:52 05.05.2020, 20:43:29 6966
wie lange halten umwickelte Saiten? doghouse07.05.2020, 11:43:14 29.04.2020, 16:34:41 41187
Umbau: Abnehmbarer Hals Baumkruste29.04.2020, 18:37:49 21.04.2020, 14:47:58 142216
Stimmstockposition verändern nagybögö29.04.2020, 14:09:15 05.11.2008, 22:52:39 3151423
Unterricht in Hannover HannoBass28.04.2020, 18:11:57 27.04.2020, 13:20:41 2795
Duzen vs. Siezen Ste-Fan25.04.2020, 12:25:47 11.04.2020, 00:22:57 81389
Meine Saitenmatrix und mein Channel hervejeanne24.04.2020, 15:24:23 03.04.2020, 18:59:12 81436
Position Saitenhalter Basskl23.04.2020, 21:05:12 16.04.2020, 13:57:49 111338
einstellbarer Stimmstock Klangzauberstab mattes20.04.2020, 14:55:44 16.10.2019, 13:20:11 8918213
Meta Hodos Bassta705.04.2020, 17:12:18 28.03.2020, 19:14:49 61810
Universallösung Verstärker und Boxen für E-und Kontrabass tippit4902.04.2020, 12:01:49 12.07.2019, 21:02:18 63623
Play along 16fuss31.03.2020, 17:51:20 31.03.2020, 14:23:12 2998
J.Wilfer Kontrabass ?!Wertschätzung?! Sabina27.03.2020, 10:42:31 21.02.2006, 13:42:04 920650
wilfert Bass Klaus Behrends27.03.2020, 09:45:26 19.02.2004, 18:45:33 725670
Bose L1 Frank27.03.2020, 09:22:07 08.02.2020, 14:46:01 31582
Soll ich mit Kontrabass anfangen? Michi6225.03.2020, 21:56:02 31.03.2019, 17:48:57 247850
Kontrabass kaufen Basst!25.03.2020, 21:55:32 22.02.2020, 12:04:41 162582
QSC 12.2 denisdn19.03.2020, 22:55:45 16.03.2020, 18:01:13 41522
Meine "Billig-Kontrabass" Erfahrungen KaschiSoeth09.03.2020, 10:37:43 07.03.2020, 19:12:29 22454
blackwood Griffbrett hauptimann07.03.2020, 14:19:13 08.06.2017, 13:05:51 816442
Kontrabass " unterschlagen " koelbljoachim01.03.2020, 10:35:36 29.01.2013, 20:30:36 1330698
Bassbogen H.R.Pfretzschner gritzka27.02.2020, 18:01:56 20.02.2020, 14:59:10 31479
Komressor?! Ja Bitte! Artsimpson24.02.2020, 01:30:38 20.02.2020, 12:15:15 11346
Leatherwood bespoke rosin Bassist1421.02.2020, 01:04:50 01.09.2019, 20:07:54 103759
Kolophonium-Frust nagybögö20.02.2020, 11:59:53 19.12.2015, 13:04:28 4021178
Noten Hindemith Orchesterstimmung HolgerSt17.02.2020, 18:42:28 22.02.2006, 21:06:54 1315888
Mélâss Methode Bassta716.02.2020, 16:56:54 15.02.2020, 15:09:14 31281
Welche Saiten sind das? double_is_bässer24.01.2020, 17:02:38 10.01.2020, 22:10:52 21815
Welche Hybrid Saiten für Swing + bisschen Arco? Axolotl22.01.2020, 16:39:43 01.01.2020, 21:46:20 152561
Kleine Kunststoff Hülse an Spirocore Mittel D-Saite Grandefuturo16.01.2020, 23:31:15 08.01.2020, 00:17:58 92560
Sololiteratur in Orchesterstimmung? Hen16.01.2020, 13:45:47 12.01.2012, 11:22:22 544494
Händlerverkauf auf Kommission im Südwesten Bassist_081513.01.2020, 15:38:53 13.01.2020, 14:12:57 11243
Bassbauer im Raum Würzburg-Bamberg? don6713.01.2020, 10:24:59 07.01.2020, 17:26:51 21414
Saiten und Griffbrett reinigen Basst!10.01.2020, 17:31:55 05.10.2019, 12:42:59 133027
Gewerbliche Anbieter im Marktplatz MoBass07.01.2020, 19:02:44 07.01.2020, 19:02:44 01233
Electric Upright Bass MK werner05.01.2020, 15:29:36 05.01.2020, 11:30:27 11462
der ideale Kontrabass-Stuhl streichbass24.12.2019, 12:20:21 18.03.2006, 22:17:41 3546968
Helicore Orchestra tauschen pedalist2916.12.2019, 15:48:03 15.12.2019, 10:13:35 42168
Venta-Luftbefeuchter HartKor14.12.2019, 21:58:15 10.12.2019, 22:01:53 31551
Kontrabass: tragen oder ziehen? turgur04.12.2019, 20:31:10 28.11.2019, 16:52:23 132821
Basslehrertreffen Ste-Fan03.12.2019, 11:15:25 07.11.2019, 19:43:05 12023
Instrumentenversicherung fabfourstrings29.11.2019, 12:15:53 10.06.2012, 16:54:36 2450278
7.12. save the date: 7. Arbeitstreffen HanseBass Ste-Fan29.11.2019, 10:22:20 07.11.2019, 19:38:32 31781
Kontrabass einschätzen martinthi28.11.2019, 16:55:41 25.11.2019, 22:46:50 21940
Infiziert... Anuschka07.11.2019, 16:44:50 07.11.2019, 00:40:20 11991
Anytune auf altem iOS oder OSX installieren Pizzicato8730.10.2019, 17:27:31 30.10.2019, 17:27:31 01492
Betrug auf GEBA? Baumkruste25.10.2019, 12:28:49 06.01.2017, 19:55:06 5129253
konische Reibahle 1/17 ausleihen? bassknecht20.10.2019, 15:46:12 04.12.2009, 16:02:16 1047396
KB in Lissabon???? moesate11.10.2019, 20:02:11 11.10.2019, 14:50:48 12448
Bögen unter 1000€ TV05.10.2019, 11:57:33 28.09.2019, 12:00:20 42805
Beethoven 6. Gewitter-Sturm Kontrafrank04.10.2019, 11:54:02 02.10.2019, 15:23:13 82024
Transport 2er 3/4 Bässe in einem peugeot Kastenwagen Milan_Boxberg25.09.2019, 02:53:17 23.09.2019, 18:16:10 15633
Lee Rocker Pickup? thias05.09.2019, 11:32:20 12.07.2019, 16:09:55 42919
Sperrholzbass -> kann der was? McSchwaiger03.09.2019, 20:12:20 13.08.2019, 17:15:32 42958
Noten gesucht: "Air" von Egilsson Ste-Fan03.09.2019, 12:11:08 03.09.2019, 12:11:08 01743
Bass leihen PalmaKunkel02.09.2019, 15:57:09 02.09.2019, 15:57:09 02040
Pirastro Perpetuals Frank29.08.2019, 15:33:08 17.08.2019, 12:28:21 73718

Seite: 1 - 2 - 3 - 4 - 5 - 6 - 7 - 8 - 9 - 10 - 11 - 12 - 13 - 14 - 15 - 16 - 17 - 18 - 19 - 20 - 21 - 22 - 23 - 24 - 25 - 26 - 27 - 28 - 29 - 30 - 31 - 32 - 33 - 34 - 35 - 36 - 37 - 38 - 39 - 40 - 41 - 42 - 43 - 44


Nur angemeldete Benutzer dürfen Beiträge schreiben. Bitte hier einloggen: LogIn



Zuletzt aktualisiert von Besucher am 13.07.2020, 13:51:24.